Peachtree City, GA

2:03 PM EDT on August 22, 2017 (GMT -0400)
Peachtree City-Falcon

Weather History for KFFC - November, 2012

Change the Weather History Date:

Wednesday, November 7, 2012

  Actual Average Record
Temperature  
Mean Temperature 62 °F 55 °F  
Max Temperature 84 °F 68 °F 84 °F (2012)
Min Temperature 39 °F 42 °F 26 °F (1998)
Degree Days  
Heating Degree Days 4 10  
Month to date heating degree days 67  
Since 1 July heating degree days 233  
Cooling Degree Days 0 0  
Month to date cooling degree days 2  
Year to date cooling degree days 1650  
Growing Degree Days 12 (Base 50)    
Moisture  
Dew Point 43 °F    
Average Humidity 84    
Maximum Humidity 96    
Minimum Humidity 13    
Precipitation  
Precipitation 0.05 in 0.12 in 0.65 in (2006)
Month to date precipitation 0.75  
Year to date precipitation 42.73  
Sea Level Pressure  
Sea Level Pressure 29.95 in    
Wind  
Wind Speed 3 mph (WNW)    
Max Wind Speed 12 mph    
Max Gust Speed 21 mph    
Visibility 6 miles    
Events Rain    
T = Trace of Precipitation, MM = Missing Value Source: NWS Daily Summary

Daily Weather History Graph

Daily Weather History Graph

Search for Another Location

Airport or City:

Trip Planner

Search our weather history database for the weather conditions in past years. The results will help you decide how hot, cold, wet, or windy it might be!

Date:

Astronomy

Nov. 07, 2012 Rise Set
Actual Time 7:02 AM EST 5:40 PM EST
Civil Twilight 6:36 AM EST 6:06 PM EST
Nautical Twilight 6:07 AM EST 6:36 PM EST
Astronomical Twilight 5:37 AM EST 7:05 PM EST
Moon 12:16 AM EST (11/7) 1:31 PM EST (11/7)
Length of Visible Light 11h 30m
Length of Day
10h 38m
Last Quarter, 43% of the Moon is Illuminated
Nov 7
Last Quarter
Nov 13
New
Nov 20
First Quarter
Nov 28
Full
Dec 6
Last Quarter

Hourly Weather History & Observations

Time (EST) Temp. Windchill Dew Point Humidity Pressure Visibility Wind Dir Wind Speed Gust Speed Precip Events Conditions
12:53 AM 46.9 °F - 45.0 °F 93% 29.96 in 6.0 mi Calm Calm - N/A   Overcast
1:53 AM 46.9 °F - 45.0 °F 93% 29.95 in 4.0 mi Calm Calm - N/A   Overcast
2:53 AM 46.0 °F - 45.0 °F 96% 29.94 in 3.0 mi Calm Calm - N/A   Overcast
3:53 AM 46.9 °F - 45.0 °F 93% 29.93 in 4.0 mi Calm Calm - 0.00 in Rain Light Rain
4:53 AM 46.0 °F - 45.0 °F 96% 29.93 in 4.0 mi Calm Calm - 0.01 in Rain Light Rain
5:15 AM 46.4 °F - 44.6 °F 93% 29.92 in 4.0 mi Calm Calm - 0.00 in Rain Light Rain
5:53 AM 46.0 °F - 45.0 °F 96% 29.93 in 3.0 mi Calm Calm - 0.00 in   Overcast
6:00 AM 46.4 °F - 44.6 °F 93% 29.92 in 4.0 mi Calm Calm - N/A   Overcast
6:27 AM 46.4 °F - 44.6 °F 93% 29.92 in 3.0 mi Calm Calm - N/A   Overcast
6:53 AM 46.0 °F 44.8 °F 45.0 °F 96% 29.94 in 3.0 mi Variable 3.5 mph - N/A   Overcast
7:03 AM 46.4 °F - 44.6 °F 93% 29.93 in 4.0 mi Calm Calm - N/A   Overcast
7:17 AM 46.4 °F - 44.6 °F 93% 29.93 in 4.0 mi Calm Calm - N/A   Overcast
7:34 AM 46.4 °F - 44.6 °F 93% 29.93 in 4.0 mi Calm Calm - N/A   Overcast
7:53 AM 46.9 °F - 45.0 °F 93% 29.94 in 3.0 mi Calm Calm - N/A   Overcast
7:58 AM 46.4 °F 45.2 °F 44.6 °F 93% 29.94 in 2.5 mi West 3.5 mph - N/A   Overcast
8:07 AM 46.4 °F 45.2 °F 44.6 °F 93% 29.94 in 3.0 mi WSW 3.5 mph - N/A   Overcast
8:43 AM 48.2 °F - 44.6 °F 87% 29.94 in 3.0 mi West 4.6 mph - N/A   Overcast
8:53 AM 48.0 °F - 45.0 °F 89% 29.95 in 4.0 mi West 4.6 mph - N/A   Overcast
9:03 AM 48.2 °F - 44.6 °F 87% 29.94 in 4.0 mi West 4.6 mph - N/A   Overcast
9:11 AM 48.2 °F - 44.6 °F 87% 29.94 in 4.0 mi West 3.5 mph - N/A   Overcast
9:20 AM 48.2 °F - 46.4 °F 93% 29.94 in 5.0 mi West 3.5 mph - N/A   Overcast
9:27 AM 48.2 °F - 44.6 °F 87% 29.94 in 5.0 mi WNW 5.8 mph - N/A   Overcast
9:53 AM 48.9 °F - 45.0 °F 86% 29.95 in 6.0 mi WNW 5.8 mph - N/A   Overcast
9:58 AM 50.0 °F - 44.6 °F 82% 29.94 in 6.0 mi Variable 4.6 mph - N/A   Haze
10:27 AM 50.0 °F - 44.6 °F 82% 29.94 in 9.0 mi WNW 9.2 mph - N/A   Overcast
10:40 AM 50.0 °F - 42.8 °F 76% 29.94 in 9.0 mi Variable 5.8 mph - N/A   Overcast
10:51 AM 50.0 °F - 42.8 °F 76% 29.94 in 10.0 mi WNW 6.9 mph - N/A   Overcast
10:53 AM 50.0 °F - 43.0 °F 77% 29.95 in 10.0 mi West 8.1 mph - N/A   Overcast
11:15 AM 48.2 °F - 42.8 °F 82% 29.95 in 2.5 mi WNW 11.5 mph 20.7 mph 0.02 in Rain Light Rain
11:23 AM 46.4 °F 41.5 °F 41.0 °F 81% 29.95 in 3.0 mi WNW 10.4 mph 19.6 mph 0.03 in Rain Rain
11:53 AM 46.9 °F - 42.1 °F 83% 29.95 in 10.0 mi WNW 4.6 mph - 0.04 in   Overcast
12:53 PM 50.0 °F - 43.0 °F 77% 29.92 in 10.0 mi West 6.9 mph - N/A   Mostly Cloudy
1:53 PM 53.1 °F - 39.9 °F 61% 29.91 in 10.0 mi West 8.1 mph - N/A   Scattered Clouds
2:53 PM 50.0 °F - 39.0 °F 66% 29.91 in 8.0 mi NNW 8.1 mph - 0.00 in Rain Light Rain
3:50 PM 84.2 °F - 28.4 °F 13% 29.93 in 40.0 mi SW 6.9 mph - N/A   Clear
3:53 PM 50.0 °F - 37.0 °F 61% 29.93 in 10.0 mi North 9.2 mph - 0.00 in   Overcast
4:53 PM 50.0 °F - 39.9 °F 68% 29.95 in 10.0 mi North 5.8 mph - N/A   Overcast
5:53 PM 48.9 °F - 39.9 °F 71% 29.97 in 10.0 mi NNW 4.6 mph - N/A   Overcast
6:53 PM 44.1 °F - 39.9 °F 85% 30.01 in 10.0 mi Calm Calm - N/A   Partly Cloudy
7:53 PM 39.9 °F - 37.9 °F 93% 30.03 in 7.0 mi Calm Calm - N/A   Clear
8:53 PM 41.0 °F 39.0 °F 37.9 °F 89% 30.04 in 10.0 mi NW 3.5 mph - N/A   Clear
9:53 PM 43.0 °F 39.5 °F 39.0 °F 86% 30.06 in 10.0 mi WNW 5.8 mph - N/A   Clear
10:53 PM 42.1 °F 39.2 °F 39.0 °F 89% 30.07 in 10.0 mi WNW 4.6 mph - N/A   Clear
11:53 PM 41.0 °F 37.1 °F 39.0 °F 93% 30.08 in 9.0 mi NW 5.8 mph - N/A   Clear